Tracking 19485 objects as of 21-Jan-2019
HD Live streaming from Space Station
objects crossing your sky now

IRIDIUM 39

Track IRIDIUM 39 now!
10-day predictions
IRIDIUM 39 is classified as:


NORAD ID: 25042
Int'l Code: 1997-069D
Perigee: 731.1 km
Apogee: 758.8 km
Inclination: 86.4 °
Period: 99.6 minutes
Semi major axis: 7115 km
RCS: 4.3221 m2 (large)
Launch date: November 9, 1997
Source: United States (US)
Launch site: AIR FORCE WESTERN TEST RANGE (AFWTR)
aabbcc
Your satellite tracking list
Your tracking list is empty




NASA's NSSDC Master Catalog

Two Line Element Set (TLE):
1 25042U 97069D   19020.45527070  .00000108  00000-0  24308-4 0  9996
2 25042  86.3948 130.8299 0019475 170.4198 189.7380 14.46285755110871
Source of the keplerian elements: AFSPC